Isikeli Krishna

Chief Scout - Tailevu Naitasiri
5 Dec 2027
Sunday
Process

Personality

Adaptability (13) Ambition (8) Controversy (11) Loyalty (8) Pressure (19) Professionalism (18) Sportsmanship (12) Temperament (15)

Profile

Coaching Style Democratic
License Continental A
Determination 1
Man Management 5
Motivating 6
Discipline 4
Job Satisfaction
100%
Fatigue
0%
Role Chief Scout
Wage 13.6K p/w
Contract 14.03.2029

Performance

Behaviour Good
Training Effectiveness
14%
Player Development
25%
Injury Prevention
25%
Tactical Implementation
15%

Recent Events

Assessed a player now
Assessed a player now
Assessed a player now
Assessed a player now
Assessed a player now
Assessed a player now
Assessed a player now
Assessed a player now

Currently Monitoring

361
Player Club Status Ability Confidence Watched Last Observed Latest Vote
Khaled Kamal Ba Active 91 / 69 40% 6 04.12.2027 -
Oliver Evans Perth Glory Active 76 / 101 40% 7 04.12.2027 -
Hassan El Hattab Team Wellington Active 81 / 88 40% 6 04.12.2027 -
Abdumavlon Abdujalilov Bunyodkor Active 112 / 104 40% 3 04.12.2027 -
James Durrington Brisbane Roar Active 89 / 86 40% 7 03.12.2027 -
Deklan Wood Waitakere United Active 83 / 64 40% 2 03.12.2027 -
Oscar Page Brisbane Roar Active 75 / 86 40% 11 02.12.2027 -
Patrick Joseph Ba Active 50 / 78 40% 5 02.12.2027 -
Ashnil Raju Labasa Active 44 / 47 40% 2 02.12.2027 -
Nadeo Argawinata Persija Active 64 / 96 40% 1 02.12.2027 -
Frets Butuan Maluku Utara United Active 95 / 68 40% 8 01.12.2027 -
Mark Isozaki Omiya Ardija Active 101 / 82 40% 19 01.12.2027 -
Kamronbek Hamroyev Mashal Active 58 / 87 40% 2 01.12.2027 -
Bogdan Odinayev Bunyodkor Active 78 / 69 40% 1 01.12.2027 -
Oussama Fatmi Lautoka Active 83 / 74 40% 11 30.11.2027 -
Darold Kakasi Ba Active 46 / 65 40% 8 30.11.2027 -
Lucas Urán Sydney FC Active 93 / 87 40% 18 30.11.2027 -
Dostonbek To'xtaboyev Mashal Active 103 / 65 40% 2 30.11.2027 -
Rizqi Abhirama Persik Active 65 / 84 40% 1 30.11.2027 -
Mohammed Alam Lautoka Active 50 / 50 40% 4 29.11.2027 -
Miswar Saputra Madura United Active 80 / 92 40% 1 29.11.2027 -
Saidu Lawan Dewa United Active 50 / 78 40% 5 28.11.2027 -
Lachie Charles Maccabi Netanya Active 65 / 81 40% 4 28.11.2027 -
Asilbek No'monov Nasaf Active 91 / 64 40% 14 27.11.2027 -
Valijon Rahimov Navbahor Active 94 / 104 40% 2 27.11.2027 -
Ibroxim Numonov Bukhara Active 89 / 94 40% 16 27.11.2027 -
Brandon Comley Hapoel Raanana Active 103 / 103 40% 2 27.11.2027 -
Ryan Kurnia Bhayangkara Presisi Active 83 / 76 40% 1 27.11.2027 -
Farruhjon Qodirov Bukhara Active 86 / 95 40% 1 27.11.2027 -
Muhannad Barah Okzhetpes Active 61 / 77 40% 10 26.11.2027 -
Daniel Atlan Maccabi Netanya Active 95 / 70 40% 4 26.11.2027 -
Oliver Middleton Auckland FC Active 89 / 88 40% 4 25.11.2027 -
Owen Lockyer Waitakere United Active 53 / 62 40% 3 25.11.2027 -
Rosyad Setiawan Semen Padang Active 93 / 82 40% 1 25.11.2027 -
Andrian Casvari Arema Active 52 / 75 40% 7 24.11.2027 -
Mirjalol Jumayev Shortan Active 108 / 90 40% 1 24.11.2027 -
Jai Ajanović Central Coast Mariners Active 83 / 97 40% 1 24.11.2027 -
Andhika Ramadhani Persik Active 71 / 85 40% 5 23.11.2027 -
Habibi Jusuf Borneo Active 46 / 75 40% 7 23.11.2027 -
Yance Sayuri Maluku Utara United Active 96 / 64 40% 2 23.11.2027 -
Chukwubuike Martin Bali United Active 55 / 56 40% 2 23.11.2027 -
Cahya Supriadi PSIM Active 87 / 73 40% 3 22.11.2027 -
Kayne Razmovski Rewa Active 54 / 80 40% 14 22.11.2027 -
Juan Pablo Chávez FC Tokyo Active 95 / 90 40% 1 22.11.2027 -
Abongwe Newman Lautoka Active 60 / 69 40% 3 21.11.2027 -
Noah Nelson Hawke's Bay United Active 76 / 68 40% 2 21.11.2027 -
Achmad Iqbal Bachtiar Semen Padang Active 55 / 75 40% 1 21.11.2027 -
Joel Valdemarín Omiya Ardija Active 73 / 103 40% 9 20.11.2027 -
Gianluca Pandeynuwu Persis Active 78 / 65 40% 2 19.11.2027 -
Ido Zavaro Beitar Jerusalem Active 74 / 92 40% 1 19.11.2027 -
Ambrizal Umanailo Persijap Active 92 / 91 40% 4 18.11.2027 -
Sairusi Nalaubu Lautoka Active 89 / 66 40% 2 18.11.2027 -
Christian Bracco Hawke's Bay United Active 89 / 87 40% 2 18.11.2027 -
Erkebūlan Toibekov Taraz Active 98 / 62 40% 1 18.11.2027 -
Rocky Junior Nadi Active 62 / 55 40% 5 16.11.2027 -
Rendy Razzaqu Madura United Active 56 / 43 40% 3 15.11.2027 -
Ilham Udin Armayn PSBS Biak Active 103 / 89 40% 5 15.11.2027 -
Kou Gotou Shakhter Active 92 / 73 40% 9 15.11.2027 -
Bernard Bukari Macarthur FC Active 56 / 71 40% 2 15.11.2027 -
Santiago Paz Hapoel Beer Sheva Active 112 / 109 40% 1 15.11.2027 -
George Plusnin Brisbane Roar Active 68 / 76 40% 12 14.11.2027 -
Ergash Ismoilov Mashal Active 88 / 92 40% 1 14.11.2027 -
Sūltan Būsyrmanov Tobol Active 81 / 84 40% 3 13.11.2027 -
Ryuga Tashiro Albirex Niigata Active 64 / 75 40% 4 13.11.2027 -
Owen Lewis Southern United Active 61 / 54 40% 2 12.11.2027 -
Jolame Domonikibau Rewa Active 37 / 52 40% 3 11.11.2027 -
Muslimbek Habibullayev Navbahor Active 77 / 79 40% 5 11.11.2027 -
Behruz Soatov Rewa Active 85 / 79 40% 4 10.11.2027 -
Aporosa Yada Labasa Active 64 / 77 40% 3 09.11.2027 -
Ali Mekawir Navua Active 58 / 75 40% 17 09.11.2027 -
Igor' Trofimets Aktobe Active 82 / 81 40% 3 09.11.2027 -
Owen Kirwan Waitakere United Active 62 / 78 40% 1 09.11.2027 -
Seth Clark Sydney FC Active 84 / 95 40% 6 08.11.2027 -
Oscar Fryer Newcastle Jets Active 103 / 107 40% 4 08.11.2027 -
Samandar Toirov Nasaf Active 59 / 60 40% 4 08.11.2027 -
Jahongir Mamatqulov Qizilqum Active 64 / 63 40% 13 07.11.2027 -
Ilaisa Vulimainavuso Labasa Active 68 / 62 40% 3 07.11.2027 -
Usman Sadiq Lokomotiv Active 83 / 94 40% 3 07.11.2027 -
Tevita Waranaivalu Rewa Active 62 / 74 40% 5 03.11.2027 -
Sihran Amarullah Borneo Active 73 / 80 40% 3 03.11.2027 -
Yacob Sayuri Maluku Utara United Active 56 / 92 40% 4 03.11.2027 -
Yuda Editya Madura United Active 54 / 85 40% 9 02.11.2027 -
Chinanu Victor Rewa Active 77 / 71 40% 8 02.11.2027 -
James Hilton Macarthur FC Active 67 / 87 40% 3 01.11.2027 -
Ilay Altman Maccabi Petach Tikva Active 69 / 84 40% 1 01.11.2027 -
Isroiljon Tursunboyev Metallurg Active 54 / 64 40% 3 30.10.2027 -
Ozodbek Marufov Nadroga Active 68 / 67 40% 9 29.10.2027 -
Rustam Nartajiyev Kokand 1912 Active 68 / 76 40% 3 29.10.2027 -
Irfan Jaya Bali United Active 65 / 73 40% 4 29.10.2027 -
Jayson Nettey Hapoel Kfar Saba Active 51 / 65 40% 2 28.10.2027 -
Amir Hasanov Obod Active 48 / 58 40% 1 28.10.2027 -
Irham Nadzhofa Persija Active 33 / 47 40% 2 27.10.2027 -
Suhrob Eshboyev Qizilqum Active 76 / 76 40% 1 27.10.2027 -
Amit Harel Bnei Yehuda Active 47 / 81 40% 3 26.10.2027 -
Sherzodbek Abduraimov Shortan Active 102 / 105 40% 1 26.10.2027 -
Reuben Otieno Neftchi Active 62 / 79 40% 1 25.10.2027 -
Abdulaziz Al-Hadhood Okzhetpes Active 56 / 71 40% 3 24.10.2027 -
Mohir Komilov Andijon Active 57 / 83 40% 8 24.10.2027 -
Akam Moses PSIM Active 50 / 85 40% 9 24.10.2027 -
Isikeli Sevanaia Rewa Active 68 / 70 40% 4 23.10.2027 -
Israel Monga Adelaide United Active 67 / 87 40% 4 23.10.2027 -
Guy Bar Hapoel Tel Aviv Active 50 / 62 40% 2 23.10.2027 -
Mohamad Anez Borneo Active 99 / 104 40% 4 23.10.2027 -
Frans Deli Auckland FC Active 80 / 93 40% 2 22.10.2027 -
Andrei Smolov Obod Active 64 / 90 40% 1 22.10.2027 -
Jake Garbett Southern United Active 44 / 68 40% 1 22.10.2027 -
Tim Smith Waitakere United Active 70 / 85 40% 4 21.10.2027 -
Baktiyor Shomko Akzhaiyk Active 47 / 57 40% 2 21.10.2027 -
Dikri Yusron Bali United Active 82 / 74 40% 2 21.10.2027 -
Shaxzod Beshimov Kokand 1912 Active 83 / 98 40% 3 21.10.2027 -
Yoav Dejaldeti Bnei Yehuda Active 69 / 91 40% 5 17.10.2027 -
Aphile Ngobese Aktobe Active 60 / 85 40% 4 17.10.2027 -
Regont Murati Auckland City Active 86 / 69 40% 9 16.10.2027 -
Brian Micceli Avispa Fukuoka Active 94 / 84 40% 1 16.10.2027 -
Syahrul Trisna Borneo Active 80 / 86 40% 2 15.10.2027 -
Michael Barbarouses Hawke's Bay United Active 51 / 55 40% 3 15.10.2027 -
Yonatan Shani Hapoel Beer Sheva Active 81 / 73 40% 5 13.10.2027 -
Misiwani Nairube Ba Active 37 / 41 40% 4 13.10.2027 -
Raheem Nugraha Ba Active 48 / 55 40% 2 11.10.2027 -
Armando Oropa Semen Padang Active 64 / 52 40% 2 11.10.2027 -
Dwiki Mardiyanto Arema Active 47 / 72 40% 5 10.10.2027 -
Etonia Dogalau Ba Active 58 / 51 40% 4 10.10.2027 -
Stefan McCowatt Hawke's Bay United Active 89 / 68 40% 9 09.10.2027 -
Abdullah Al-Bahri Aktobe Active 55 / 65 40% 1 09.10.2027 -
Maxim Orazov Akzhaiyk Active 65 / 82 40% 1 09.10.2027 -
Anthony Didulica Perth Glory Active 85 / 82 40% 4 08.10.2027 -
Cristian Toledo Brisbane Roar Active 86 / 107 40% 3 08.10.2027 -
Muhamad Riyandi Dewa United Active 62 / 81 40% 4 07.10.2027 -
Gavriil Chizhov Akzhaiyk Active 95 / 96 40% 1 07.10.2027 -
Junior Mpanza Arema Active 71 / 86 40% 8 06.10.2027 -
Mayed Muhsin Atyrau Active 104 / 75 40% 1 06.10.2027 -
Miroslav Lobantsev Okzhetpes Active 81 / 95 40% 1 06.10.2027 -
Lee Min Ki Ventforet Kofu Active 96 / 64 40% 3 05.10.2027 -
Paulo Sitanggang Madura United Active 102 / 68 40% 4 01.10.2027 -
Adre Arido Metallurg Active 46 / 55 40% 6 30.09.2027 -
Teuku Ichsan Bhayangkara Presisi Active 72 / 71 40% 1 30.09.2027 -
Diky Indrayana Madura United Active 66 / 62 40% 3 25.09.2027 -
Ryan Barbarouses Canterbury United Active 57 / 56 40% 3 24.09.2027 -
Joela Biuvanua Lautoka Active 75 / 75 40% 7 23.09.2027 -
Tim Waine Canterbury United Active 75 / 93 40% 3 23.09.2027 -
Farel Putra Wardani Semen Padang Active 57 / 46 40% 3 22.09.2027 -
G'anisher Qodirov Shortan Active 84 / 84 40% 6 21.09.2027 -
Arian Pardo Adelaide United Active 87 / 99 40% 3 21.09.2027 -
Kasim Botan PSIM Active 65 / 82 40% 1 21.09.2027 -
Mohamed Mouaataz Khenniche Bunyodkor Active 76 / 95 40% 14 18.09.2027 -
Razak Abdullah Sydney FC Active 69 / 75 40% 1 18.09.2027 -
Sanzhar Rahmatilia Taraz Active 40 / 67 40% 1 18.09.2027 -
Shohrux Mahmudhojiyev Kokand 1912 Active 59 / 92 40% 3 16.09.2027 -
Tim Stamatelopoulos Canterbury United Active 82 / 88 40% 1 15.09.2027 -
Wonderson Yakubu Hapoel Raanana Active 99 / 84 40% 13 14.09.2027 -
Valentín Morelini Bhayangkara Presisi Active 82 / 62 40% 2 13.09.2027 -
Daiki Hotta Vegalta Sendai Active 81 / 102 40% 3 10.09.2027 -
Nickolas Alfaro Sydney FC Active 48 / 65 40% 1 10.09.2027 -
Azat Nurgaliev Akzhaiyk Active 87 / 81 40% 1 10.09.2027 -
Luke Vickery Macarthur FC Active 81 / 83 40% 24 09.09.2027 -
Christopher Wasasala Labasa Active 56 / 65 40% 5 08.09.2027 -
Zane Helweh Macarthur FC Active 80 / 98 40% 15 07.09.2027 -
Thiab Mohamed Dewa United Active 46 / 77 40% 4 06.09.2027 -
Atunaisa Naucukidi Lautoka Active 38 / 42 40% 1 06.09.2027 -
Nurlan Ibraimov Pakhtakor Active 66 / 96 40% 3 01.09.2027 -
Ridho Syuhada Maluku Utara United Active 89 / 82 40% 2 01.09.2027 -
Hokky Caraka Persita Active 49 / 80 40% 6 30.08.2027 -
Marcel Vergara Sydney FC Active 91 / 89 40% 2 28.08.2027 -
Iowane Matanisiga Labasa Active 84 / 72 40% 3 27.08.2027 -
Fitrul Dwi Rustapa Bali United Active 76 / 77 40% 4 23.08.2027 -
Zainal Ali Navua Active 61 / 69 40% 2 23.08.2027 -
Steward Toata Nadroga Active 44 / 57 40% 2 21.08.2027 -
Zakhar Porokh Okzhetpes Active 75 / 92 40% 2 20.08.2027 -
Michael McCowatt Canterbury United Active 96 / 95 40% 1 12.08.2027 -
Theo Numberi Dewa United Active 52 / 68 40% 1 11.08.2027 -
Niv Tubul Hapoel Kfar Saba Active 72 / 65 40% 1 10.08.2027 -
Ben Gibson Macarthur FC Active 92 / 91 40% 3 09.08.2027 -
Yofandani Pranata Dewa United Active 54 / 49 40% 2 09.08.2027 -
Shivam Naidu Lautoka Active 46 / 48 40% 2 09.08.2027 -
Tevita Ravia Nadi Active 47 / 46 40% 1 04.08.2027 -
Rakan Al-Kaabi PSBS Biak Active 40 / 71 40% 3 03.08.2027 -
Murodjon Komilov Kokand 1912 Active 71 / 93 40% 1 03.08.2027 -
Sheva Sanggasi Persijap Active 52 / 70 40% 5 02.08.2027 -
Oliver Dragićević Melbourne Victory Active 97 / 80 40% 4 31.07.2027 -
Takumi Yasuno Vegalta Sendai Active 82 / 89 40% 6 31.07.2027 -
Asivorosi Rabo Rewa Active 51 / 56 40% 2 30.07.2027 -
Gavin Kwan Adsit Borneo Active 72 / 75 40% 3 30.07.2027 -
Adi Satryo Arema Active 66 / 79 40% 6 24.07.2027 -
Aqil Savik Bhayangkara Presisi Active 83 / 81 40% 6 22.07.2027 -
Ben Cacace Hawke's Bay United Active 65 / 73 40% 1 22.07.2027 -
Ady Setiawan Dewa United Active 72 / 84 40% 1 17.07.2027 -
Dafa Setiawarman Dewa United Active 64 / 51 40% 1 15.07.2027 -
Fabian Talladira Adelaide United Active 89 / 91 40% 6 11.07.2027 -
Richard Nkomo Newcastle Jets Active 85 / 86 40% 6 11.07.2027 -
Mohammad Khanafi Persik Active 50 / 67 40% 2 08.07.2027 -
Matan Zelmanovics Hapoel Kiryat Shmona Active 105 / 97 40% 2 06.07.2027 -
Daichi Suzuki Sagan Tosu Active 75 / 67 40% 3 05.07.2027 -
Sūltan Shymyrkhan Shakhter Active 50 / 72 40% 6 03.07.2027 -
Yuval Kretzo Maccabi Petach Tikva Active 59 / 68 40% 3 03.07.2027 -
Heri Susanto PSBS Biak Active 85 / 66 40% 8 03.07.2027 -
Maicon Silva Semen Padang Active 53 / 70 40% 5 02.07.2027 -
Toshikazu Teruuchi Urawa Reds Active 72 / 96 40% 2 30.06.2027 -
Neemish Prasad Rewa Active 43 / 74 40% 2 28.06.2027 -
Laisenia Nawalu Nasinu Active 64 / 47 34% 1 28.06.2027 -
Rusiate Doidoi Labasa Active 62 / 65 40% 1 26.06.2027 -
Nūrbergen Nūrbol Zhetysu Active 63 / 89 40% 1 24.06.2027 -
Al-Zahri Atyrau Active 48 / 76 40% 4 21.06.2027 -
Lyle Chatburn Auckland City Active 70 / 74 40% 5 20.06.2027 -
Yanir Nimni Hapoel Kfar Saba Active 55 / 55 40% 1 20.06.2027 -
Yamato Naito Ventforet Kofu Active 57 / 65 40% 8 18.06.2027 -
Or Yitzhak Bnei Yehuda Active 97 / 88 40% 3 18.06.2027 -
Joji Vuakaca Labasa Active 61 / 56 40% 2 16.06.2027 -
Joe Lacey Sydney FC Active 72 / 79 40% 1 16.06.2027 -
O'ktamjon Abdumalikov Kokand 1912 Active 53 / 91 40% 4 15.06.2027 -
Raymond Matlamela Rewa Active 85 / 69 40% 3 10.06.2027 -
Clayton Payne Waitakere United Active 84 / 89 40% 1 10.06.2027 -
Make Aldo Maulidino PSIM Active 54 / 75 40% 5 09.06.2027 -
Alex Nunes Newcastle Jets Active 93 / 89 40% 4 08.06.2027 -
Zach Lisolajski Melbourne City Active 88 / 101 40% 2 07.06.2027 -
Ricky Kambuaya Dewa United Active 65 / 91 40% 2 06.06.2027 -
Pablo Martínez Brisbane Roar Active 68 / 65 40% 2 02.06.2027 -
Liam Bonetig Melbourne City Active 80 / 79 40% 1 02.06.2027 -
Riley Dalziell Auckland FC Active 92 / 87 40% 2 01.06.2027 -
Yaad Gonen Hapoel Haifa Active 76 / 87 40% 3 31.05.2027 -
Wataru Kamijo Sydney FC Active 76 / 77 40% 17 30.05.2027 -
Tzuri Zeituni Maccabi Netanya Active 92 / 68 40% 2 30.05.2027 -
Ryan Kalms Melbourne City Active 64 / 83 40% 1 29.05.2027 -
Ben van Dorssen Ba Active 60 / 69 40% 1 29.05.2027 -
Atonio Tuivuna Lautoka Active 67 / 48 40% 3 28.05.2027 -
Jovilisi Borisi Navua Active 62 / 52 40% 1 28.05.2027 -
Joshua Inserra Melbourne Victory Active 91 / 89 40% 2 27.05.2027 -
Yehonatan Segev Maccabi Petach Tikva Active 46 / 56 40% 1 26.05.2027 -
Harel Goldenberg Hapoel Kiryat Shmona Active 76 / 90 40% 2 25.05.2027 -
Noah McCann Central Coast Mariners Active 85 / 83 40% 2 25.05.2027 -
Jack Warshawsky Melbourne Victory Active 103 / 104 40% 1 25.05.2027 -
Ahmad Nur Hardianto Persita Active 76 / 64 40% 5 24.05.2027 -
Sitiveni Rakai Labasa Active 53 / 49 40% 2 24.05.2027 -
Xolani Tshaka Navbahor Active 85 / 58 40% 3 22.05.2027 -
Grant Turner Southern United Active 79 / 82 40% 5 21.05.2027 -
Maor Erlich Maccabi Petach Tikva Active 72 / 78 40% 1 21.05.2027 -
Dony Tri Pamungkas Persija Active 93 / 86 40% 2 20.05.2027 -
Ahmed Wahid Auckland FC Active 92 / 79 40% 2 18.05.2027 -
Tomás Olivarez Newcastle Jets Active 76 / 94 40% 1 17.05.2027 -
Tuiba Batiratu Nadi Active 46 / 70 40% 2 16.05.2027 -
Ryan Boxall Canterbury United Active 89 / 75 40% 3 11.05.2027 -
Jack Wale Navua Active 51 / 56 40% 3 11.05.2027 -
Oran Shoval Beitar Jerusalem Active 55 / 65 40% 1 10.05.2027 -
Akeimi Ralulu Labasa Active 42 / 72 40% 3 09.05.2027 -
Will McKay Macarthur FC Active 66 / 86 40% 3 07.05.2027 -
Diyorbek To'laboyev Nasaf Active 36 / 51 40% 2 05.05.2027 -
Daiki Sakata Bnei Yehuda Active 81 / 81 40% 1 05.05.2027 -
Samuel Navoce Labasa Active 48 / 53 40% 2 03.05.2027 -
Shivam Shandil Nasinu Active 45 / 48 40% 1 03.05.2027 -
César Ayón Brisbane Roar Active 80 / 78 40% 1 03.05.2027 -
Benjamin Machini Hapoel Kfar Saba Active 56 / 90 40% 2 01.05.2027 -
Hafizh Rizkianur Persija Active 46 / 53 40% 2 29.04.2027 -
Andrei Alba Persis Active 96 / 88 40% 3 28.04.2027 -
Manuel Aguilar Melbourne City Active 67 / 76 40% 1 28.04.2027 -
Nematulloh Rustamjonov Andijon Active 70 / 95 40% 1 26.04.2027 -
Asilbek Tojiddinov Andijon Active 48 / 63 40% 2 24.04.2027 -
Sutanto Tan Persis Active 61 / 87 40% 8 24.04.2027 -
Jackson Izquierdo Jubilo Iwata Active 46 / 44 40% 2 24.04.2027 -
Mishal Saad Hapoel Raanana Active 64 / 78 40% 3 21.04.2027 -
Iran Madura United Active 90 / 62 40% 1 21.04.2027 -
Diego García Adelaide United Active 73 / 78 40% 1 20.04.2027 -
Tiago Quintal Sydney FC Active 85 / 102 40% 3 16.04.2027 -
Jayden Smith Wellington Phoenix Active 86 / 77 40% 3 15.04.2027 -
Setareki Hughes Rewa Active 51 / 63 40% 2 14.04.2027 -
Ginanjar Wahyu Bhayangkara Presisi Active 46 / 80 40% 5 13.04.2027 -
Mourad Kaaouach Persik Active 85 / 95 40% 1 09.04.2027 -
Ahmad Noviandani Madura United Active 69 / 72 40% 6 07.04.2027 -
Alex Nelson Canterbury United Active 77 / 68 40% 2 05.04.2027 -
Iqbal Hadi PSBS Biak Active 52 / 78 40% 1 05.04.2027 -
Muhammad Isa PSBS Biak Active 52 / 79 40% 2 04.04.2027 -
Ben Mewett Western Sydney Wanderers Active 67 / 70 40% 2 04.04.2027 -
Eiji Shirai Albirex Niigata Active 104 / 66 40% 1 03.04.2027 -
Ulug'bek Sunnatov Shortan Active 73 / 81 40% 2 02.04.2027 -
Muhammad Toha Persita Active 87 / 80 40% 1 01.04.2027 -
Lucas Scicluna Perth Glory Active 86 / 86 40% 5 31.03.2027 -
Matías Bentos-Pereira Melbourne City Active 93 / 86 40% 1 31.03.2027 -
Hidetoshi Takeda Vegalta Sendai Active 72 / 92 40% 1 31.03.2027 -
Shohjahon Yorqinboyev Andijon Active 62 / 80 40% 1 30.03.2027 -
Juan Madjar PSBS Biak Active 59 / 70 40% 1 29.03.2027 -
Dylan Argüello Bnei Sakhnin Active 55 / 66 40% 2 28.03.2027 -
Siyabonga Hlengwa Navua Active 81 / 59 40% 1 28.03.2027 -
Betel Valésio Melbourne City Active 82 / 83 40% 1 28.03.2027 -
Filipe Baravilala Navua Active 46 / 71 40% 1 27.03.2027 -
Daniel Cohen Maccabi Netanya Active 62 / 58 40% 1 27.03.2027 -
Sitiveni Cavuilagi Lautoka Active 71 / 58 40% 1 26.03.2027 -
Maximiliano de los Santos Brisbane Roar Active 72 / 85 40% 2 24.03.2027 -
Kadú Borneo Active 88 / 77 40% 1 24.03.2027 -
Alan Maluku Utara United Active 95 / 102 40% 1 24.03.2027 -
Víctor Barona Melbourne City Active 63 / 75 40% 2 23.03.2027 -
Tevita Koroi Ba Active 55 / 62 40% 1 21.03.2027 -
Alan Ríos Beitar Jerusalem Active 83 / 77 40% 1 20.03.2027 -
Khulekani Kubheka PSIM Active 94 / 101 40% 2 18.03.2027 -
Shota Uchiyama Albirex Niigata Active 74 / 76 40% 1 17.03.2027 -
Abdul Rahman PSM Active 55 / 79 40% 2 11.03.2027 -
Nabil Begg Ba Active 44 / 59 40% 3 08.03.2027 -
Albert Nurullayev Bukhara Active 43 / 53 40% 2 04.03.2027 -
Jens Raven Bali United Active 43 / 50 40% 1 03.03.2027 -
Nūraidar Äskerbek Taraz Active 46 / 65 40% 3 27.02.2027 -
Og'abek Asadov Shortan Active 40 / 76 40% 1 24.02.2027 -
Mustafa Sheikh Yousef Bnei Sakhnin Active 66 / 56 40% 1 24.02.2027 -
Ahmad Agung PSIM Active 99 / 66 40% 2 21.02.2027 -
Ori Hassan Bnei Yehuda Active 94 / 86 40% 1 21.02.2027 -
Reagan Ogle Melbourne City Active 83 / 81 40% 3 16.02.2027 -
Tyler Williams Sydney FC Active 67 / 83 40% 1 15.02.2027 -
Epeli Leiroti Lautoka Active 52 / 51 40% 1 15.02.2027 -
Luigi Gaspar Brisbane Roar Active 83 / 73 40% 1 08.02.2027 -
Akmaljon Muzaffarov Qizilqum Active 49 / 61 40% 1 08.02.2027 -
Miras Zhaqsymbetov Taraz Active 70 / 93 40% 2 07.02.2027 -
Leon Kofana Rewa Active 60 / 61 40% 1 07.02.2027 -
Gabriele Matanisiga Rewa Active 72 / 61 40% 1 06.02.2027 -
Senirusi Bokini Lautoka Active 38 / 56 40% 1 06.02.2027 -
Areya Prasad Auckland City Active 42 / 55 40% 1 05.02.2027 -
Sulton Rahmatov Qizilqum Active 40 / 60 40% 2 04.02.2027 -
Abdurahmon Sulaymonov Bunyodkor Active 78 / 54 40% 1 04.02.2027 -
Michael Pistiner Bnei Yehuda Active 81 / 77 40% 1 02.02.2027 -
Javohir Iskandarov Ba Active 48 / 63 40% 1 31.01.2027 -
Diyorbek Mamadaliyev Mashal Active 71 / 70 40% 1 31.01.2027 -
Hajime Hidaka Omiya Ardija Active 90 / 87 40% 1 29.01.2027 -
Miraziz Mahamadaliyev Andijon Active 43 / 61 40% 2 27.01.2027 -
Davron To'laganov Pakhtakor Active 76 / 81 40% 3 24.01.2027 -
Adeeb Al-Hassan Nasaf Active 85 / 58 40% 1 24.01.2027 -
Beniamino Swamy Nadroga Active 38 / 70 34% 1 18.01.2027 -
Tomás Aguirre Omiya Ardija Active 77 / 100 40% 1 14.01.2027 -
Muhammadjon Valiyev Nasaf Active 76 / 82 40% 4 13.01.2027 -
Rahul Naresh Ba Active 72 / 56 40% 1 12.01.2027 -
Tony Nair Nadroga Active 52 / 41 34% 1 11.01.2027 -
Mufdi Iskandar Bhayangkara Presisi Active 45 / 53 40% 1 10.01.2027 -
Victor Dethan PSM Active 65 / 65 40% 1 09.01.2027 -
Wahyu Agong Semen Padang Active 54 / 63 40% 1 09.01.2027 -
Abdul Naviko Nadroga Active 48 / 53 34% 1 01.01.2027 -
Abdulla Faisal Ordabasy Active 83 / 65 40% 1 15.12.2026 -
Rafael Andrade Rewa Active 55 / 63 40% 3 14.12.2026 -
Masahito Ono Nagoya Grampus Active 68 / 84 40% 1 05.12.2026 -
Sota Yokoyama Vegalta Sendai Active 92 / 74 40% 1 01.12.2026 -
Ethan Cox Adelaide United Active 99 / 98 40% 4 24.11.2026 -
Mohamed Emad Bukhara Active 88 / 61 40% 1 21.11.2026 -
Shungo Sugiura Nagoya Grampus Active 104 / 68 40% 1 17.11.2026 -
Shodiyor Shodiboyev Lokomotiv Active 100 / 80 40% 9 16.11.2026 -
Abdallah Maga Mashal Active 86 / 69 40% 2 31.10.2026 -
Farruh Toshpo'latov Mashal Active 65 / 75 40% 2 27.10.2026 -
Muhammadbobur Karimov Shortan Active 43 / 91 40% 1 17.10.2026 -
Izzatullo Abdulhaqov Mashal Active 89 / 73 40% 2 15.10.2026 -
Ghulam Fatkur Rachman PSIM Active 45 / 71 40% 1 09.10.2026 -
Murod Ermatov Mashal Active 84 / 72 40% 2 04.10.2026 -
Nūrğaini Böribaev Okzhetpes Active 108 / 76 40% 1 24.09.2026 -
Suhrobjon Parmonqulov Mashal Active 44 / 51 40% 1 21.09.2026 -
Diyor Rahmatullayev Qizilqum Active 103 / 98 40% 1 20.09.2026 -
Dilshod Murtazoyev Nasaf Active 42 / 91 40% 1 12.09.2026 -
Noah Wood WaiBOP United Active 76 / 79 40% 1 11.09.2026 -
Qobylandy Kamariden Okzhetpes Active 52 / 61 40% 1 09.09.2026 -
Sena Ishibashi Shonan Bellmare Active 104 / 92 40% 1 08.09.2026 -
Tohirbek To'xtasinov Sogdiana Active 85 / 65 40% 1 04.09.2026 -
Jefferson Persis Active 58 / 73 40% 1 02.09.2026 -
Yoyo Aviv Maccabi Tel Aviv Active 44 / 54 40% 2 01.09.2026 -
Jaloliddin Sodiqov Navbahor Active 84 / 86 40% 1 26.08.2026 -
Sherzodbek Abdulboriyev Lokomotiv Active 94 / 57 40% 1 26.08.2026 -
Jack Brown Persita Active 50 / 71 40% 1 17.08.2026 -
Richard Monday Ubong Vissel Kobe Active 48 / 51 40% 1 11.08.2026 -
Deklan Wood Active 72 / 72 40% 1 11.08.2026 -
Pauliasi Tulivou Nadi Active 55 / 59 34% 1 10.08.2026 -
Will Freney Perth Glory Active 83 / 87 40% 1 02.08.2026 -
Raka Cahyana PSIM Active 86 / 82 40% 1 01.08.2026 -